[[{"header":{"parameterUnit":"m.s-1","parameterCategory":2,"la1":30.2992,"la2":30.254,"lo1":-89.0895,"lo2":-89.0443,"dy":0.0025,"dx":0.0025,"nx":19,"ny":19,"refTime":"2026-05-04T09:00:00:Z","depth":"0","parameterNumber":2,"parameterNumberName":"U-component_of_CURRENTS"},"data":[0,0,0,0.2615,0.2615,0.261,0.261,0.2683,0.2684,0,0,0,0,0,0,0,0,0,0,0,0.2613,0.2613,0.2615,0.2615,0.261,0.261,0.2683,0.2684,0,0,0,0,0,0,0,0,0,0,0,0.2613,0.2613,0.2613,0.2615,0.261,0.261,0.2683,0.2665,0,0,0,0,0,0,0,0,0,0,0.2659,0.2646,0.2613,0.2613,0.2615,0.261,0.261,0.2663,0.2666,0.2711,0,0.2711,0,0.2708,0.2692,0.2692,0,0,0,0.2607,0.2643,0.2648,0.2613,0.2615,0.261,0.261,0.2664,0.2668,0.2716,0.2712,0.2714,0.2709,0.2693,0.2693,0.2859,0.286,0,0,0.2607,0.2609,0.2645,0.265,0.2618,0.261,0.261,0.2665,0.267,0.2712,0.2716,0.271,0.2693,0.2694,0.2858,0.2859,0,0,0,0.2614,0.2609,0.261,0.2647,0.2644,0.261,0.261,0.2667,0.2669,0.2716,0.2711,0.2694,0.2695,0.2857,0.2858,0.289,0,0,0,0.2613,0.2613,0.261,0.261,0.2643,0.2644,0.261,0.2664,0.267,0.2711,0.2694,0.2697,0.2856,0.2858,0.2887,0.2927,0,0,0,0.2612,0.2613,0.2614,0.261,0.2612,0.2643,0.2647,0.2665,0.2669,0.2692,0.2697,0.2855,0.2857,0.2884,0.2921,0.3058,0,0,0,0.2611,0.261,0.2614,0.2621,0.2613,0.2637,0.2646,0.2671,0.2692,0.2695,0.2856,0.2858,0.2883,0.2918,0.3053,0.2885,0.2894,0,0,0.2608,0.261,0.2617,0.262,0.2635,0.2637,0.2687,0.2719,0.2749,0.2839,0.2842,0.2888,0.2921,0.3057,0.3019,0.3023,0,0,0,0.2616,0.2611,0.262,0.263,0.2655,0.2697,0.2718,0.2772,0.2862,0.2774,0.2926,0.2948,0.3032,0.2921,0.2926,0.2758,0.2869,0.2869,0.2868,0.2591,0.2609,0.261,0.2634,0.2673,0.2746,0.2818,0.2903,0.29,0.297,0.3,0.3164,0.3043,0.3046,0.2874,0.3019,0.3019,0.3019,0.3019,0.2569,0.2559,0.2602,0.261,0.2683,0.2746,0.2916,0.2965,0.3153,0.3094,0.3174,0.2992,0.3053,0.2868,0.3022,0.3021,0.3021,0.3021,0.302,0.253,0.2524,0.2536,0.257,0.265,0.2758,0.294,0.3081,0.3202,0.329,0.3223,0.3219,0.3039,0.3341,0.3342,0.3342,0.3343,0.3344,0.3344,0.248,0.2489,0.2488,0.2536,0.2577,0.2716,0.2982,0.3136,0.3274,0.3286,0.3285,0.3065,0.3265,0.3232,0.3356,0.3354,0.3352,0.3351,0.335,0.2418,0.2435,0.2432,0.2455,0.2563,0.2649,0.2909,0.3134,0.3321,0.3351,0.3066,0.3302,0.3298,0.329,0.326,0.3386,0.3386,0.3386,0.3386,0.2377,0.2386,0.2382,0.2419,0.2512,0.2627,0.273,0.2876,0.2976,0.2918,0.299,0.2805,0.2811,0.2771,0.2774,0.2731,0.272,0.2719,0.2718,0.2344,0.2351,0.2335,0.2378,0.2477,0.2572,0.2534,0.2439,0.2543,0.2682,0.2802,0.283,0.2548,0.2571,0.2493,0.2512,0.2436,0,0]},{"header":{"parameterUnit":"m.s-1","parameterCategory":2,"la1":30.2992,"la2":30.254,"lo1":-89.0895,"lo2":-89.0443,"dy":0.0025,"dx":0.0025,"nx":19,"ny":19,"refTime":"2026-05-04T09:00:00:Z","depth":"0","parameterNumber":3,"parameterNumberName":"V-component_of_CURRENTS"},"data":[0,0,0,0.0405,0.0405,0.0408,0.0408,0.0417,0.0417,0,0,0,0,0,0,0,0,0,0,0,0.0408,0.0408,0.0405,0.0405,0.0408,0.0408,0.0417,0.0417,0,0,0,0,0,0,0,0,0,0,0,0.0408,0.0408,0.0408,0.0405,0.0408,0.0408,0.0417,0.0413,0,0,0,0,0,0,0,0,0,0,0.041,0.0407,0.0408,0.0408,0.0405,0.0408,0.0408,0.0413,0.0414,0.0417,0,0.0421,0,0.0418,0.0418,0.0418,0,0,0,0.0405,0.0407,0.0412,0.0408,0.0405,0.0408,0.0407,0.0413,0.0414,0.0418,0.0421,0.0421,0.0418,0.0418,0.0418,0.0489,0.0489,0,0,0.0405,0.0404,0.0412,0.0412,0.0411,0.0407,0.0407,0.0414,0.0414,0.0421,0.0422,0.0418,0.0418,0.0418,0.0488,0.0489,0,0,0,0.0404,0.0404,0.0408,0.0412,0.0412,0.0407,0.0407,0.0414,0.0417,0.0422,0.0418,0.0418,0.0418,0.0487,0.0488,0.0589,0,0,0,0.0404,0.0403,0.0408,0.0407,0.0412,0.041,0.0407,0.0416,0.0417,0.0418,0.0418,0.0418,0.0487,0.0488,0.0585,0.0666,0,0,0,0.0407,0.0403,0.0406,0.0407,0.0408,0.041,0.0413,0.0416,0.0415,0.0418,0.0418,0.0486,0.0488,0.0581,0.0657,0.0795,0,0,0,0.0402,0.0425,0.0406,0.0435,0.0409,0.0447,0.0413,0.0434,0.0442,0.0418,0.0487,0.0488,0.0579,0.0653,0.0789,0.084,0.0873,0,0,0.0432,0.0428,0.0448,0.0433,0.0484,0.0446,0.0507,0.0495,0.0468,0.0483,0.0484,0.0586,0.0657,0.0794,0.0935,0.0966,0,0,0,0.046,0.0478,0.049,0.0512,0.0525,0.0564,0.054,0.0546,0.0573,0.048,0.0592,0.0634,0.0717,0.0734,0.0758,0.0708,0.0496,0.0496,0.0496,0.0502,0.0518,0.0568,0.0595,0.0623,0.0644,0.0688,0.0694,0.0636,0.0671,0.0718,0.0898,0.0914,0.0934,0.0879,0.0701,0.0701,0.0702,0.0702,0.0576,0.0614,0.0641,0.0693,0.073,0.0782,0.084,0.083,0.093,0.0826,0.0901,0.0841,0.0967,0.0899,0.0708,0.0707,0.0707,0.0706,0.0705,0.0614,0.0639,0.0666,0.0753,0.0845,0.0891,0.1072,0.1071,0.1057,0.1127,0.1171,0.1169,0.1113,0.1171,0.1172,0.1173,0.1174,0.1175,0.1175,0.0645,0.0679,0.0744,0.0831,0.0913,0.1065,0.1223,0.1333,0.1388,0.1327,0.1327,0.1177,0.1042,0.1028,0.119,0.1187,0.1185,0.1184,0.1183,0.0706,0.0714,0.0821,0.0897,0.1118,0.1361,0.1482,0.1695,0.1752,0.1786,0.149,0.1437,0.143,0.1407,0.1402,0.1653,0.1653,0.1653,0.1653,0.074,0.0754,0.0909,0.1065,0.1297,0.1509,0.1862,0.1958,0.1848,0.173,0.1653,0.1515,0.1498,0.1485,0.1461,0.1452,0.171,0.1709,0.1709,0.0789,0.0828,0.0953,0.1111,0.1383,0.1715,0.203,0.2113,0.1865,0.1702,0.1583,0.1581,0.1358,0.1336,0.1286,0.1257,0.1231,0,0]}],[{"header":{"parameterUnit":"m.s-1","parameterCategory":2,"la1":30.2992,"la2":30.254,"lo1":-89.0895,"lo2":-89.0443,"dy":0.0025,"dx":0.0025,"nx":19,"ny":19,"refTime":"2026-05-04T09:00:00:Z","depth":"2","parameterNumber":2,"parameterNumberName":"U-component_of_CURRENTS"},"data":[0,0,0,0.2508,0.2509,0.2517,0.2517,0.2584,0.2585,0,0,0,0,0,0,0,0,0,0,0,0.2503,0.2503,0.2508,0.2509,0.2517,0.2517,0.2584,0.2585,0,0,0,0,0,0,0,0,0,0,0,0.2503,0.2503,0.2503,0.2509,0.2517,0.2517,0.2584,0.2562,0,0,0,0,0,0,0,0,0,0,0.2546,0.2534,0.2503,0.2503,0.2509,0.2517,0.2517,0.256,0.2563,0.2599,0,0.2602,0,0.2602,0.2592,0.2592,0,0,0,0.2501,0.2531,0.2537,0.2503,0.2509,0.2517,0.2511,0.2561,0.2565,0.2604,0.2603,0.2606,0.2603,0.2592,0.2593,0.274,0.2741,0,0,0.2501,0.2502,0.2534,0.254,0.2516,0.2511,0.2512,0.2563,0.2568,0.2604,0.2607,0.2604,0.2593,0.2594,0.2739,0.274,0,0,0,0.2505,0.2502,0.2505,0.2537,0.2538,0.2511,0.2512,0.2566,0.2568,0.2608,0.2605,0.2593,0.2595,0.2738,0.2739,0.2779,0,0,0,0.2504,0.2504,0.2505,0.2505,0.2537,0.2544,0.2514,0.2564,0.257,0.2605,0.2593,0.2596,0.2737,0.2739,0.2776,0.2804,0,0,0,0.2501,0.2504,0.2507,0.2505,0.2512,0.2543,0.2547,0.2564,0.2569,0.2592,0.2596,0.2736,0.2738,0.2773,0.28,0.2917,0,0,0,0.2499,0.2501,0.2507,0.2516,0.2512,0.2538,0.2547,0.2574,0.2595,0.2594,0.2737,0.2739,0.2772,0.2797,0.2913,0.2725,0.273,0,0,0.2498,0.2501,0.2508,0.2514,0.2529,0.2536,0.2584,0.2616,0.2644,0.2721,0.2724,0.2777,0.2799,0.2916,0.2847,0.2848,0,0,0,0.2506,0.2503,0.2512,0.2524,0.255,0.2591,0.2614,0.2665,0.2752,0.2668,0.2809,0.2823,0.2895,0.2773,0.2775,0.2749,0.2749,0.2749,0.2749,0.2485,0.2501,0.2505,0.2527,0.2563,0.2637,0.2703,0.2783,0.2786,0.2854,0.2878,0.3026,0.2894,0.2894,0.2899,0.2899,0.2899,0.2899,0.29,0.2465,0.2456,0.2496,0.2505,0.2574,0.2634,0.2791,0.2843,0.3012,0.2967,0.3036,0.2848,0.2898,0.2903,0.2903,0.2902,0.2902,0.2901,0.2901,0.243,0.2424,0.2439,0.2469,0.2545,0.2647,0.2808,0.296,0.3058,0.3137,0.3051,0.3047,0.3066,0.3188,0.3188,0.3189,0.319,0.319,0.319,0.2383,0.2393,0.2395,0.2439,0.2477,0.2609,0.2859,0.2989,0.3107,0.3105,0.3104,0.3124,0.3115,0.3086,0.3201,0.3199,0.3197,0.3196,0.3196,0.2326,0.2344,0.2339,0.2362,0.2461,0.2512,0.2759,0.2914,0.3085,0.3078,0.3102,0.3101,0.3086,0.308,0.3051,0.3152,0.3152,0.3152,0.3152,0.2288,0.2297,0.2291,0.2325,0.2399,0.248,0.2482,0.2563,0.2761,0.2797,0.2812,0.2651,0.266,0.2614,0.2619,0.2578,0.2556,0.2554,0.2553,0.2256,0.226,0.2244,0.2285,0.2362,0.2391,0.2256,0.2079,0.2199,0.253,0.2709,0.3111,0.2908,0.2911,0.2863,0.2862,0.2805,0,0]},{"header":{"parameterUnit":"m.s-1","parameterCategory":2,"la1":30.2992,"la2":30.254,"lo1":-89.0895,"lo2":-89.0443,"dy":0.0025,"dx":0.0025,"nx":19,"ny":19,"refTime":"2026-05-04T09:00:00:Z","depth":"2","parameterNumber":3,"parameterNumberName":"V-component_of_CURRENTS"},"data":[0,0,0,0.0307,0.0307,0.0315,0.0315,0.0324,0.0324,0,0,0,0,0,0,0,0,0,0,0,0.0309,0.0309,0.0307,0.0307,0.0315,0.0315,0.0324,0.0324,0,0,0,0,0,0,0,0,0,0,0,0.0308,0.0309,0.0309,0.0307,0.0315,0.0315,0.0324,0.0319,0,0,0,0,0,0,0,0,0,0,0.0311,0.0308,0.0309,0.0309,0.0307,0.0315,0.0315,0.0318,0.0319,0.032,0,0.0326,0,0.0323,0.0325,0.0325,0,0,0,0.0307,0.0308,0.0314,0.0309,0.0307,0.0315,0.0312,0.0319,0.0319,0.0321,0.0326,0.0326,0.0324,0.0325,0.0325,0.0388,0.0388,0,0,0.0307,0.0305,0.0313,0.0314,0.0315,0.0311,0.0312,0.0319,0.032,0.0326,0.0326,0.0324,0.0325,0.0325,0.0387,0.0388,0,0,0,0.0305,0.0305,0.0311,0.0314,0.0315,0.0312,0.0312,0.032,0.0323,0.0326,0.0324,0.0325,0.0325,0.0386,0.0387,0.0485,0,0,0,0.0305,0.0304,0.0311,0.0309,0.0315,0.0316,0.0313,0.0322,0.0323,0.0324,0.0325,0.0325,0.0386,0.0387,0.0481,0.055,0,0,0,0.0307,0.0304,0.0308,0.0309,0.0313,0.0316,0.0319,0.0322,0.0321,0.0325,0.0325,0.0385,0.0387,0.0477,0.0543,0.0658,0,0,0,0.0302,0.0324,0.0308,0.0336,0.0313,0.0351,0.0319,0.034,0.0349,0.0325,0.0386,0.0387,0.0476,0.0538,0.0652,0.0676,0.0704,0,0,0.0331,0.0327,0.0347,0.0333,0.0383,0.0349,0.0407,0.0398,0.0371,0.0381,0.0383,0.0483,0.0542,0.0657,0.0761,0.0786,0,0,0,0.0358,0.0376,0.0387,0.041,0.0423,0.0461,0.044,0.0445,0.0469,0.0382,0.0485,0.052,0.059,0.0591,0.0612,0.0394,0.0394,0.0394,0.0394,0.04,0.0415,0.0462,0.0488,0.0515,0.0536,0.0575,0.0578,0.0528,0.0559,0.0601,0.0758,0.0759,0.0775,0.0587,0.0587,0.0587,0.0588,0.0588,0.047,0.0506,0.0531,0.0581,0.0615,0.0666,0.0715,0.0706,0.0788,0.07,0.0762,0.0695,0.0803,0.0596,0.0594,0.0593,0.0592,0.0592,0.0591,0.0507,0.053,0.0557,0.064,0.0726,0.0769,0.0923,0.0933,0.0905,0.0963,0.0984,0.0981,0.0848,0.1003,0.1004,0.1005,0.1005,0.1006,0.1007,0.0537,0.0569,0.0632,0.0714,0.0793,0.0933,0.1069,0.1153,0.1189,0.1122,0.1122,0.0899,0.0886,0.0873,0.1019,0.1017,0.1015,0.1014,0.1013,0.0594,0.0603,0.0705,0.0778,0.0985,0.1189,0.129,0.143,0.147,0.1476,0.1216,0.1207,0.1191,0.1173,0.1167,0.1382,0.1382,0.1382,0.1382,0.0627,0.064,0.0789,0.0938,0.115,0.1321,0.1563,0.1593,0.1515,0.1403,0.1402,0.1282,0.1267,0.1247,0.1227,0.1218,0.1446,0.1446,0.1446,0.0672,0.0709,0.083,0.0983,0.1233,0.1489,0.169,0.1655,0.1449,0.1445,0.137,0.1394,0.1206,0.1188,0.114,0.1115,0.1093,0,0]}],[{"header":{"parameterUnit":"m.s-1","parameterCategory":2,"la1":30.2992,"la2":30.254,"lo1":-89.0895,"lo2":-89.0443,"dy":0.0025,"dx":0.0025,"nx":19,"ny":19,"refTime":"2026-05-04T09:00:00:Z","depth":"4","parameterNumber":2,"parameterNumberName":"U-component_of_CURRENTS"},"data":[0,0,0,0.1722,0.1725,0.1857,0.1857,0.1955,0.1955,0,0,0,0,0,0,0,0,0,0,0,0.1684,0.1686,0.1722,0.1725,0.1857,0.1857,0.1954,0.1955,0,0,0,0,0,0,0,0,0,0,0,0.1684,0.1685,0.1687,0.1726,0.1857,0.1857,0.1954,0.1873,0,0,0,0,0,0,0,0,0,0,0.1754,0.1736,0.1685,0.1687,0.1727,0.1857,0.1858,0.187,0.1878,0.1874,0,0.1907,0,0.1929,0.196,0.196,0,0,0,0.1726,0.1729,0.1757,0.1687,0.1728,0.1856,0.1798,0.1875,0.1884,0.1885,0.1909,0.1913,0.1931,0.1961,0.1961,0.2032,0.2032,0,0,0.1719,0.1712,0.1751,0.1763,0.1777,0.1793,0.1802,0.1881,0.1899,0.1909,0.1915,0.1932,0.1961,0.1962,0.2032,0.2032,0,0,0,0.1697,0.1707,0.1735,0.1759,0.1786,0.1797,0.1807,0.1896,0.1904,0.1916,0.1933,0.1961,0.1962,0.2031,0.2032,0.2086,0,0,0,0.1693,0.1695,0.1732,0.173,0.1785,0.1854,0.182,0.1899,0.1909,0.1933,0.1961,0.1963,0.2031,0.2032,0.2084,0.209,0,0,0,0.1676,0.1693,0.1711,0.1729,0.1784,0.1854,0.1867,0.1902,0.1918,0.196,0.1963,0.2031,0.2032,0.2082,0.2088,0.213,0,0,0,0.1659,0.1682,0.1712,0.1749,0.1783,0.1853,0.1867,0.1937,0.1978,0.1962,0.2031,0.2032,0.2082,0.2086,0.2128,0.1863,0,0,0,0.1668,0.1684,0.1703,0.1732,0.1783,0.1834,0.1904,0.197,0.1979,0.1999,0.2002,0.2085,0.2087,0.2129,0.1899,0,0,0,0,0.1691,0.1705,0.1727,0.1773,0.1829,0.1895,0.1964,0.1993,0.2052,0.2006,0.2081,0.208,0.2106,0.1945,0.2035,0.2035,0.2034,0.2034,0.2034,0.1676,0.1707,0.1739,0.1791,0.1847,0.1948,0.2004,0.2053,0.2073,0.2109,0.2123,0.2185,0.2017,0.2129,0.2129,0.2129,0.213,0.213,0.213,0.1665,0.1671,0.1738,0.1784,0.1867,0.1946,0.2051,0.2098,0.2176,0.2164,0.2187,0.2009,0.2135,0.2134,0.2133,0.2133,0.2132,0.2132,0.2132,0.1625,0.1629,0.1685,0.1759,0.185,0.196,0.2023,0.2118,0.221,0.2247,0.2092,0.2221,0.2219,0.2281,0.2282,0.2282,0.2282,0.2282,0.2282,0.1553,0.1601,0.1639,0.1731,0.1779,0.1877,0.2019,0.206,0.2175,0.211,0.2276,0.2236,0.2231,0.2227,0.2286,0.2285,0.2285,0.2285,0.2284,0.1479,0.1528,0.1558,0.1603,0.1677,0.1714,0.189,0.1929,0.1974,0.1974,0.2032,0.2044,0.1999,0.2,0.1986,0.1975,0.1972,0.1969,0,0.1426,0.1452,0.1474,0.1474,0.1475,0.1582,0.1584,0.1677,0.1787,0.1739,0.1983,0.2046,0.2053,0.1998,0.1994,0.1973,0,0,0,0.1383,0.1399,0.1375,0.1377,0.1342,0.1398,0.1563,0.1533,0.18,0.1743,0.1889,0.191,0.2096,0.2296,0.2255,0.2249,0.224,0,0]},{"header":{"parameterUnit":"m.s-1","parameterCategory":2,"la1":30.2992,"la2":30.254,"lo1":-89.0895,"lo2":-89.0443,"dy":0.0025,"dx":0.0025,"nx":19,"ny":19,"refTime":"2026-05-04T09:00:00:Z","depth":"4","parameterNumber":3,"parameterNumberName":"V-component_of_CURRENTS"},"data":[0,0,0,0.0178,0.0179,0.0201,0.0201,0.0228,0.0229,0,0,0,0,0,0,0,0,0,0,0,0.0175,0.0175,0.0178,0.0179,0.0201,0.0201,0.0228,0.0229,0,0,0,0,0,0,0,0,0,0,0,0.0174,0.0175,0.0175,0.0179,0.0201,0.0201,0.0228,0.0212,0,0,0,0,0,0,0,0,0,0,0.0191,0.0184,0.0175,0.0175,0.0179,0.0201,0.0201,0.0211,0.0213,0.0217,0,0.0223,0,0.0224,0.023,0.023,0,0,0,0.0181,0.0183,0.0191,0.0175,0.0179,0.0201,0.0192,0.0212,0.0214,0.0219,0.0224,0.0225,0.0225,0.023,0.023,0.0283,0.0284,0,0,0.0179,0.0177,0.0189,0.0192,0.0189,0.0191,0.0192,0.0214,0.0216,0.0224,0.0225,0.0225,0.023,0.0231,0.0283,0.0283,0,0,0,0.0175,0.0176,0.0183,0.0191,0.0194,0.0191,0.0193,0.0215,0.0218,0.0226,0.0225,0.0231,0.0231,0.0282,0.0283,0.0346,0,0,0,0.0174,0.0173,0.0182,0.0181,0.0194,0.0204,0.0194,0.0217,0.0219,0.0225,0.0231,0.0231,0.0282,0.0283,0.0343,0.0383,0,0,0,0.0173,0.0172,0.0177,0.0181,0.0189,0.0204,0.0208,0.0218,0.0219,0.023,0.0231,0.0282,0.0282,0.0341,0.0378,0.0421,0,0,0,0.0167,0.0185,0.0177,0.0201,0.0189,0.0227,0.0208,0.0233,0.0247,0.0231,0.0282,0.0283,0.034,0.0375,0.0418,0.0402,0,0,0,0.0188,0.0187,0.0204,0.0197,0.0241,0.0224,0.0275,0.0279,0.0261,0.0274,0.0275,0.0344,0.0378,0.042,0.0458,0,0,0,0,0.021,0.0225,0.0237,0.0259,0.0277,0.0311,0.0308,0.031,0.0328,0.0273,0.0346,0.0365,0.039,0.0372,0.0288,0.0287,0.0287,0.0287,0.0287,0.0237,0.0253,0.0293,0.032,0.0347,0.0372,0.0397,0.0399,0.0372,0.0389,0.0417,0.0495,0.0478,0.0411,0.0411,0.0411,0.0412,0.0412,0.0412,0.0285,0.0312,0.0342,0.0385,0.042,0.0466,0.0496,0.0488,0.0522,0.0478,0.0498,0.044,0.0418,0.0417,0.0416,0.0415,0.0415,0.0414,0.0414,0.0304,0.0321,0.0351,0.0424,0.0497,0.0539,0.0626,0.0614,0.0594,0.0617,0.0594,0.0545,0.0539,0.0627,0.0627,0.0628,0.0628,0.0628,0.0628,0.031,0.0344,0.0396,0.0472,0.0538,0.0635,0.0699,0.072,0.0692,0.0677,0.0643,0.0568,0.0561,0.0552,0.0634,0.0633,0.0632,0.0632,0.0631,0.0332,0.035,0.0431,0.0493,0.0645,0.072,0.0782,0.0796,0.0814,0.0792,0.0702,0.0697,0.0676,0.0667,0.066,0.0778,0.0778,0.0778,0,0.0343,0.0357,0.0472,0.0578,0.0706,0.0775,0.0842,0.0857,0.0798,0.0789,0.0795,0.0693,0.0689,0.0661,0.0653,0.0645,0,0,0,0.0361,0.0395,0.0479,0.0587,0.0731,0.081,0.0864,0.0852,0.082,0.0808,0.0782,0.0781,0.069,0.0651,0.0607,0.0598,0.0581,0,0]}]]